This is the latest recevied weather packets stored in our database for station/object VK3AFQ-13. If no packets are shown the sender has not sent any weather packets the latest 10 day(s).
| Time | Temp. | Humidity | Pressure | Rain* | Wind** | Luminosity | Snow |
|---|---|---|---|---|---|---|---|
| 1777574764 | 14.44° C | 64% | 1023.8 hPa | - | - | - | - |
| 1777573864 | 14.44° C | 64% | 1023.7 hPa | - | - | - | - |
| 1777572964 | 15° C | 63% | 1023.6 hPa | - | - | - | - |
| 1777572062 | 15° C | 63% | 1023.5 hPa | - | - | - | - |
| 1777571164 | 15° C | 62% | 1023.5 hPa | - | - | - | - |
| 1777570264 | 15.56° C | 62% | 1023.6 hPa | - | - | - | - |
| 1777569364 | 15.56° C | 61% | 1023.6 hPa | - | - | - | - |
| 1777568462 | 15.56° C | 61% | 1023.7 hPa | - | - | - | - |
| 1777567564 | 15.56° C | 60% | 1023.9 hPa | - | - | - | - |
| 1777566663 | 15.56° C | 58% | 1023.9 hPa | - | - | - | - |
| 1777565763 | 15.56° C | 58% | 1024 hPa | - | - | - | - |
| 1777564862 | 15.56° C | 58% | 1024.1 hPa | - | - | - | - |
| 1777563964 | 15.56° C | 58% | 1024.2 hPa | - | - | - | - |
| 1777563064 | 15° C | 58% | 1024.2 hPa | - | - | - | - |
| 1777562164 | 15.56° C | 55% | 1024.3 hPa | - | - | - | - |
| 1777561262 | 15.56° C | 54% | 1024.1 hPa | - | - | - | - |
| 1777560364 | 15.56° C | 53% | 1024.2 hPa | - | - | - | - |
| 1777559464 | 16.11° C | 52% | 1024.3 hPa | - | - | - | - |
| 1777557662 | 16.11° C | 51% | 1024.4 hPa | - | - | - | - |
| 1777556763 | 16.67° C | 52% | 1024.4 hPa | - | - | - | - |
| 1777555863 | 16.67° C | 49% | 1024.5 hPa | - | - | - | - |
| 1777554963 | 17.22° C | 49% | 1024.6 hPa | - | - | - | - |
| 1777554062 | 16.67° C | 49% | 1024.6 hPa | - | - | - | - |
| 1777553163 | 17.22° C | 48% | 1024.7 hPa | - | - | - | - |
| 1777552263 | 17.22° C | 48% | 1024.7 hPa | - | - | - | - |
* Rain since midnight (hover to see other rain measurements)
** Current wind speed in m/s (hover to see current wind gust speed)